Location: Unspecified
(40.7945°N, 111.1337°W)
Time: 02:48:42
(UTC-06:00)

Altair - Pass Details

Date: 02 July 2019
Orbit: 1501 x 1683 km, 47.2° (Epoch: 24 July)

Event Time Altitude Azimuth Distance (km) Brightness Sun altitude
Rises 22:20:35 0° 289° (WNW) 4,719 11.3 -12.7°
Reaches altitude 10° 22:23:39 10° 292° (WNW) 3,757 10.6 -13.1°
Maximum altitude 22:33:13 68° 16° (NNE) 1,716 7.9 -14.3°
Drops below altitude 10° 22:43:08 10° 98° (E) 3,894 9.2 -15.5°
Enters shadow 22:44:10 - 99° (E) 4,211 9.4 -15.7°
